When you browse on this site, cookies collect data to enhance your experience and personalize the content and advertising you see.
Visit our Privacy Policy to learn more. By continuing to use the site, you agree to this use of cookies and data.
  • In Spain
  • List of Countries
  • For 7 days
  • Water Temperature
  • Satellite Maps
  • Weather Map
  • Weather Widgets
  • user-avatar
    Login

    Hourly Weather Santo Tirso

    Today, 16 December, Sunday

    Time Temperature Precipitation Wind Pressure Humidity
    00:00 +14°C° 0.6 mm 2 mps 757 mmHg 98%
    01:00 +14°C° 0.6 mm 2 mps 757 mmHg 97%
    02:00 +14°C° 0.6 mm 1 mps 757 mmHg 96%
    03:00 +14°C° 0.1 mm 2 mps 757 mmHg 96%
    04:00 +13°C° 0.1 mm 2 mps 757 mmHg 95%
    05:00 +13°C° 0.1 mm 2 mps 757 mmHg 94%
    06:00 +12°C° 0.2 mm 3 mps 757 mmHg 93%
    07:00 +11°C° 0.2 mm 3 mps 758 mmHg 91%
    08:00 +11°C° 0.2 mm 3 mps 758 mmHg 90%
    09:00 +12°C° 0.6 mm 4 mps 759 mmHg 88%
    10:00 +12°C° 0.6 mm 5 mps 759 mmHg 86%
    11:00 +12°C° 0.6 mm 5 mps 760 mmHg 84%
    12:00 +13°C° 0.2 mm 5 mps 760 mmHg 81%
    13:00 +13°C° 0.2 mm 4 mps 760 mmHg 79%
    14:00 +13°C° 0.2 mm 3 mps 761 mmHg 76%
    15:00 +12°C° 0 mm 3 mps 761 mmHg 80%
    16:00 +12°C° 0 mm 2 mps 762 mmHg 83%
    17:00 +11°C° 0 mm 1 mps 762 mmHg 86%
    18:00 +10°C° 0 mm 1 mps 763 mmHg 87%
    19:00 +10°C° 0 mm 1 mps 763 mmHg 88%
    20:00 +10°C° 0 mm 1 mps 764 mmHg 88%
    21:00 +9°C° 0 mm 1 mps 764 mmHg 89%
    22:00 +9°C° 0 mm 1 mps 764 mmHg 89%
    23:00 +8°C° 0 mm 2 mps 764 mmHg 90%

    Tomorrow, 17 December, Monday

    Time Temperature Precipitation Wind Pressure Humidity
    00:00 +8°C° 0 mm 2 mps 764 mmHg 90%
    01:00 +8°C° 0 mm 2 mps 764 mmHg 90%
    02:00 +8°C° 0 mm 3 mps 764 mmHg 90%
    03:00 +8°C° 0 mm 3 mps 764 mmHg 89%
    04:00 +8°C° 0 mm 3 mps 764 mmHg 89%
    05:00 +7°C° 0 mm 3 mps 763 mmHg 89%
    06:00 +8°C° 0 mm 3 mps 764 mmHg 88%
    07:00 +8°C° 0 mm 3 mps 764 mmHg 87%
    08:00 +9°C° 0 mm 3 mps 764 mmHg 86%
    09:00 +10°C° 0 mm 3 mps 764 mmHg 82%
    10:00 +11°C° 0 mm 3 mps 763 mmHg 78%
    11:00 +12°C° 0 mm 4 mps 763 mmHg 74%
    12:00 +13°C° 0 mm 4 mps 762 mmHg 72%
    13:00 +13°C° 0 mm 4 mps 762 mmHg 71%
    14:00 +13°C° 0 mm 4 mps 761 mmHg 70%
    15:00 +12°C° 0 mm 4 mps 761 mmHg 74%
    16:00 +11°C° 0 mm 4 mps 761 mmHg 78%
    17:00 +10°C° 0 mm 3 mps 761 mmHg 82%
    18:00 +10°C° 0 mm 4 mps 761 mmHg 82%
    19:00 +10°C° 0 mm 4 mps 761 mmHg 82%
    20:00 +8°C° 0 mm 4 mps 760 mmHg 82%
    21:00 +8°C° 0 mm 5 mps 760 mmHg 82%
    22:00 +8°C° 0 mm 5 mps 760 mmHg 82%
    23:00 +8°C° 0 mm 5 mps 759 mmHg 82%

    Day after tomorrow, 18 December, Tuesday

    Time Temperature Precipitation Wind Pressure Humidity
    00:00 +8°C° 0 mm 5 mps 758 mmHg 80%
    01:00 +8°C° 0 mm 6 mps 758 mmHg 78%
    02:00 +8°C° 0 mm 6 mps 757 mmHg 76%
    03:00 +8°C° 0.2 mm 7 mps 756 mmHg 77%
    04:00 +9°C° 0.2 mm 7 mps 755 mmHg 77%
    05:00 +9°C° 0.2 mm 7 mps 754 mmHg 78%
    06:00 +9°C° 1.2 mm 7 mps 754 mmHg 80%
    07:00 +9°C° 1.2 mm 8 mps 754 mmHg 82%
    08:00 +10°C° 1.2 mm 8 mps 754 mmHg 84%
    09:00 +10°C° 5.2 mm 6 mps 755 mmHg 88%
    10:00 +9°C° 5.2 mm 5 mps 755 mmHg 91%
    11:00 +10°C° 5.2 mm 3 mps 755 mmHg 95%
    12:00 +10°C° 0.8 mm 3 mps 756 mmHg 94%
    13:00 +10°C° 0.8 mm 3 mps 756 mmHg 93%
    14:00 +10°C° 0.8 mm 2 mps 756 mmHg 91%
    15:00 +10°C° 0.2 mm 2 mps 756 mmHg 92%
    16:00 +9°C° 0.2 mm 2 mps 757 mmHg 92%
    17:00 +9°C° 0.2 mm 2 mps 757 mmHg 93%
    18:00 +9°C° 0.1 mm 2 mps 758 mmHg 93%
    19:00 +9°C° 0.1 mm 2 mps 759 mmHg 93%
    20:00 +8°C° 0.1 mm 2 mps 759 mmHg 92%
    21:00 +8°C° 0.2 mm 2 mps 760 mmHg 93%
    22:00 +8°C° 0.2 mm 2 mps 760 mmHg 93%
    23:00 +8°C° 0.2 mm 2 mps 760 mmHg 93%

    19 December, Wednesday

    Time Temperature Precipitation Wind Pressure Humidity
    00:00 +8°C° 0.3 mm 2 mps 760 mmHg 93%
    01:00 +9°C° 0.3 mm 3 mps 760 mmHg 94%
    02:00 +9°C° 0.3 mm 3 mps 760 mmHg 94%
    03:00 +9°C° 0.3 mm 3 mps 760 mmHg 94%
    04:00 +9°C° 0.3 mm 3 mps 760 mmHg 94%
    05:00 +9°C° 0.3 mm 3 mps 760 mmHg 95%
    06:00 +9°C° 0.3 mm 3 mps 761 mmHg 94%
    07:00 +9°C° 0.3 mm 3 mps 761 mmHg 93%
    08:00 +9°C° 0.3 mm 3 mps 762 mmHg 93%
    09:00 +10°C° 0.3 mm 3 mps 762 mmHg 89%
    10:00 +11°C° 0.3 mm 4 mps 762 mmHg 84%
    11:00 +12°C° 0.3 mm 4 mps 762 mmHg 80%
    12:00 +12°C° 0.2 mm 4 mps 762 mmHg 81%
    13:00 +12°C° 0.2 mm 4 mps 762 mmHg 81%
    14:00 +12°C° 0.2 mm 3 mps 762 mmHg 82%
    15:00 +12°C° 0.1 mm 2 mps 762 mmHg 85%
    16:00 +10°C° 0.1 mm 2 mps 762 mmHg 88%
    17:00 +11°C° 0.1 mm 1 mps 763 mmHg 91%
    18:00 +10°C° 0 mm 1 mps 763 mmHg 91%
    19:00 +10°C° 0 mm 1 mps 764 mmHg 92%
    20:00 +10°C° 0 mm 1 mps 764 mmHg 92%
    21:00 +9°C° 0 mm 1 mps 764 mmHg 92%
    22:00 +9°C° 0 mm 1 mps 764 mmHg 92%
    23:00 +9°C° 0 mm 1 mps 764 mmHg 92%

    20 December, Thursday

    Time Temperature Precipitation Wind Pressure Humidity
    00:00 +9°C° 0 mm 1 mps 764 mmHg 93%
    01:00 +9°C° 0 mm 1 mps 764 mmHg 93%
    02:00 +9°C° 0 mm 1 mps 764 mmHg 93%
    03:00 +8°C° 0 mm 2 mps 764 mmHg 93%
    04:00 +8°C° 0 mm 2 mps 764 mmHg 93%
    05:00 +8°C° 0 mm 2 mps 764 mmHg 93%
    06:00 +9°C° 0 mm 2 mps 765 mmHg 92%
    07:00 +9°C° 0 mm 2 mps 765 mmHg 91%
    08:00 +9°C° 0 mm 2 mps 765 mmHg 91%
    09:00 +10°C° 0 mm 2 mps 765 mmHg 86%
    10:00 +13°C° 0 mm 2 mps 765 mmHg 82%
    11:00 +13°C° 0 mm 3 mps 765 mmHg 77%
    12:00 +13°C° 0 mm 3 mps 765 mmHg 77%
    13:00 +13°C° 0 mm 3 mps 764 mmHg 76%
    14:00 +14°C° 0 mm 3 mps 764 mmHg 76%
    15:00 +14°C° 0 mm 2 mps 764 mmHg 80%
    16:00 +12°C° 0 mm 2 mps 764 mmHg 85%
    17:00 +10°C° 0 mm 2 mps 765 mmHg 89%
    18:00 +10°C° 0 mm 2 mps 765 mmHg 90%
    19:00 +10°C° 0 mm 2 mps 765 mmHg 90%
    20:00 +10°C° 0 mm 2 mps 765 mmHg 91%
    21:00 +9°C° 0 mm 2 mps 765 mmHg 91%
    22:00 +9°C° 0 mm 2 mps 765 mmHg 91%
    23:00 +9°C° 0 mm 3 mps 765 mmHg 91%

    21 December, Friday

    Time Temperature Precipitation Wind Pressure Humidity
    00:00 +9°C° 0 mm 3 mps 765 mmHg 91%
    01:00 +10°C° 0 mm 3 mps 765 mmHg 91%
    02:00 +10°C° 0 mm 3 mps 765 mmHg 91%
    03:00 +10°C° 0 mm 3 mps 765 mmHg 92%
    04:00 +10°C° 0 mm 3 mps 765 mmHg 92%
    05:00 +10°C° 0 mm 3 mps 764 mmHg 93%
    06:00 +10°C° 0.1 mm 3 mps 765 mmHg 92%
    07:00 +10°C° 0.1 mm 3 mps 765 mmHg 92%
    08:00 +11°C° 0.1 mm 3 mps 765 mmHg 92%
    09:00 +12°C° 0.1 mm 4 mps 765 mmHg 89%
    10:00 +12°C° 0.1 mm 4 mps 765 mmHg 87%
    11:00 +13°C° 0.1 mm 4 mps 765 mmHg 85%
    12:00 +13°C° 0 mm 4 mps 765 mmHg 85%
    13:00 +14°C° 0 mm 3 mps 764 mmHg 85%
    14:00 +14°C° 0 mm 3 mps 764 mmHg 85%
    15:00 +13°C° 0.1 mm 3 mps 764 mmHg 87%
    16:00 +13°C° 0.1 mm 3 mps 765 mmHg 89%
    17:00 +13°C° 0.1 mm 3 mps 765 mmHg 91%
    18:00 +12°C° 0 mm 3 mps 765 mmHg 91%
    19:00 +12°C° 0 mm 3 mps 765 mmHg 92%
    20:00 +12°C° 0 mm 3 mps 765 mmHg 92%
    21:00 +12°C° 0 mm 3 mps 765 mmHg 91%
    22:00 +12°C° 0 mm 3 mps 765 mmHg 91%
    23:00 +12°C° 0 mm 3 mps 765 mmHg 91%
    Show more